EW5790 Weather Reports


Display with metric or nautical units.
time (UTC)temp
F
wind
direction
speed
MPH
gust
MPH
rain 1hr
in
rain 24hr
in
rain mn
in
humidity
%
barometer
mb
20260506061526 60 203 0.0 0.0 0.04 0.10 0.05 1 1005.8
20260506044557 59 136 0.0 0.0 0.01 0.06 0.01 8 1006.9
20260506043058 59 107 0.0 0.0 0.01 0.06 0.01 11 1007.0
20260506041601 59 128 0.0 0.0 0.01 0.05 0.00 12 1007.0
20260506040050 59 128 0.0 0.0 0.01 0.05 0.00 9 1007.1
20260506034552 58 130 0.0 0.0 0.01 0.05 0.05 9 1007.5
20260506033041 59 146 0.0 0.0 0.01 0.05 0.05 13 1007.6
20260506031537 59 128 0.0 0.0 0.02 0.04 0.04 17 1007.8
20260506030036 59 118 0.0 0.0 0.04 0.04 0.04 21 1008.0
20260506024530 59 128 0.0 0.0 0.04 0.04 0.04 28 1008.2
20260506023024 60 116 0.0 0.0 0.04 0.04 0.04 38 1008.3
20260506021519 62 117 0.0 0.0 0.02 0.02 0.02 61 1008.2
20260506020015 64 292 0.0 0.0 0.00 0.00 0.00 68 1009.2
20260506014510 67 214 0.0 0.0 0.00 0.00 0.00 64 1008.2
20260506013018 70 256 0.0 0.0 0.00 0.00 0.00 55 1008.2
20260506011507 67 266 0.0 0.0 0.00 0.00 0.00 61 1007.8
20260506010057 67 130 0.0 0.0 0.00 0.00 0.00 65 1007.2
20260506004558 67 130 0.0 0.0 0.00 0.00 0.00 66 1006.8
20260506003052 69 130 0.0 0.0 0.00 0.00 0.00 64 1007.0
20260506001554 70 130 0.0 0.0 0.00 0.00 0.00 60 1007.0
20260506000042 71 146 0.0 0.0 0.00 0.00 0.00 58 1006.9
20260505234537 71 124 0.0 0.0 0.00 0.00 0.00 55 1006.7
20260505233033 72 181 0.0 0.0 0.00 0.00 0.00 56 1007.1
20260505231529 73 101 0.0 0.0 0.00 0.00 0.00 54 1007.3
20260505230023 73 184 0.0 0.0 0.00 0.00 0.00 54 1007.8
20260505224520 73 111 0.0 0.0 0.00 0.00 0.00 55 1007.8
20260505223017 73 175 0.0 0.0 0.00 0.00 0.00 53 1007.8
20260505221512 73 103 0.0 0.0 0.00 0.00 0.00 55 1008.0
20260505220020 73 109 0.0 0.0 0.00 0.00 0.00 55 1007.9
20260505214504 72 169 0.0 0.0 0.00 0.00 0.00 57 1008.0
20260505213100 72 111 0.0 0.0 0.00 0.00 0.00 58 1008.2
20260505211603 70 95 0.0 0.0 0.00 0.00 0.00 56 1008.3
20260505210058 70 118 0.0 0.0 0.00 0.00 0.00 60 1008.6
20260505204546 70 206 0.0 0.0 0.00 0.00 0.00 57 1008.8
20260505203042 70 173 0.0 0.0 0.00 0.00 0.00 57 1009.0
20260505201537 70 202 0.0 0.0 0.00 0.00 0.00 58 1009.3
20260505200039 70 117 0.0 0.0 0.00 0.00 0.00 59 1009.4
20260505194528 70 93 0.0 0.0 0.00 0.00 0.00 59 1009.7
20260505193024 71 250 0.0 0.0 0.00 0.00 0.00 59 1009.9
20260505191526 71 313 0.0 0.0 0.00 0.00 0.00 56 1010.2
20260505190019 71 355 0.0 0.0 0.00 0.00 0.00 58 1010.3
20260505184511 72 267 0.0 0.0 0.00 0.00 0.00 58 1010.7
20260505183006 72 175 0.0 0.0 0.00 0.00 0.00 56 1010.6
20260505181502 72 213 0.0 0.0 0.00 0.00 0.00 57 1010.8
20260505180058 73 246 0.0 0.0 0.00 0.00 0.00 55 1010.7
20260505174601 74 265 0.0 0.0 0.00 0.00 0.00 53 1010.8
20260505173051 73 127 0.0 0.0 0.00 0.00 0.00 59 1010.9
20260505171544 72 174 0.0 0.0 0.00 0.00 0.00 58 1011.3
20260505170040 71 173 0.0 0.0 0.00 0.00 0.00 61 1011.7
20260505164535 71 169 0.0 0.0 0.00 0.00 0.00 60 1011.8
20260505163030 72 270 0.0 0.0 0.00 0.00 0.00 59 1011.9
20260505161538 71 163 0.0 0.0 0.00 0.00 0.00 59 1012.1
20260505153015 71 192 0.0 0.0 0.00 0.00 0.00 59 1012.1
20260505151509 71 135 0.0 0.0 0.00 0.00 0.00 61 1011.8
20260505124527 61 145 0.0 0.0 0.00 0.00 0.00 56 1011.8
20260505123022 59 223 0.0 0.0 0.00 0.00 0.00 39 1011.8
20260505121530 57 223 0.0 0.0 0.00 0.00 0.00 27 1011.5
20260505120013 55 223 0.0 0.0 0.00 0.00 0.00 10 1011.5
20260505114509 52 242 0.0 0.0 0.00 0.00 0.00 1 1011.4
20260505113004 51 242 0.0 0.0 0.00 0.00 0.00 1 1011.1
20260505111600 51 242 0.0 0.0 0.00 0.00 0.00 1 1011.1
20260505110107 50 242 0.0 0.0 0.00 0.00 0.00 1 1011.2
20260505101550 51 242 0.0 0.0 0.00 0.00 0.00 21 1010.6
20260505100042 52 242 0.0 0.0 0.00 0.00 0.00 26 1010.6
20260505094539 53 242 0.0 0.0 0.00 0.00 0.00 31 1010.4
20260505093036 54 180 0.0 0.0 0.00 0.00 0.00 41 1010.4
20260505091536 54 149 0.0 0.0 0.00 0.00 0.00 43 1010.3
20260505090041 54 149 0.0 0.0 0.00 0.00 0.00 43 1010.3
20260505084534 55 107 0.0 0.0 0.00 0.00 0.00 48 1010.4
20260505083026 56 107 0.0 0.0 0.00 0.00 0.00 54 1010.3
20260505081522 57 107 0.0 0.0 0.00 0.00 0.00 61 1010.5
20260505080037 58 107 0.0 0.0 0.00 0.00 0.00 62 1010.1
20260505074525 57 107 0.0 0.0 0.00 0.00 0.00 63 1010.0
20260505073028 57 134 0.0 0.0 0.00 0.00 0.00 62 1009.9
20260505071519 58 134 0.0 0.0 0.00 0.00 0.00 65 1010.0
20260505070016 58 134 0.0 0.0 0.00 0.00 0.00 64 1010.1
20260505064513 59 80 0.0 0.0 0.00 0.00 0.00 65 1010.1